Location: Kawakawa
(35.3830°S, 174.0670°E)
Time: 22:07:36
(UTC+13:00)

Cosmos 1386 Rocket - Pass Details

Date: 24 January 2019
Orbit: 930 x 1005 km, 83.0° (Epoch: 15 February)

Event Time Altitude Azimuth Distance (km) Brightness Sun altitude
Exits shadow 23:09:17 50° 353° (N) 1,216 4.7 -25.3°
Maximum altitude 23:11:04 89° 269° (W) 967 4.4 -25.5°
Drops below altitude 10° 23:17:15 10° 174° (S) 2,688 7.4 -26.3°
Sets 23:19:44 0° 173° (S) 3,632 8.2 -26.6°
